Location: G�ppingen
(48.7000°N, 9.6670°E)
Time: 04:27:47
(UTC+01:00)

Tiangong 2 - Visible Passes

Search period start: 14 December 2018 00:00
Search period end: 24 December 2018 00:00
Orbit: 383 x 391 km, 42.8° (Epoch: 13 December)

Date Brightness Start Highest point End Pass type
(mag) Time Alt. Az. Time Alt. Az. Time Alt. Az.
20 Dec 3.9 18:34:19 10° S 18:34:31 10° SSE 18:34:31 10° SSE visible
21 Dec 4.0 19:10:18 10° SW 19:10:47 13° SSW 19:10:47 13° SSW visible
22 Dec 3.3 18:12:06 10° SSW 18:14:07 16° SSE 18:14:45 15° SE visible
23 Dec 3.7 17:14:27 10° S 17:15:31 11° SSE 17:16:36 10° SE visible
23 Dec 3.1 18:49:00 10° SW 18:50:56 22° SSW 18:50:56 22° SSW visible
